Zurück zum Katalog

STARLINK-32179

AktivKommunikationVLEO
NORAD 60734·PAYLOAD·🇺🇸 United States

Gestartet Aug 28, 2024 von Cape Canaveral Space Force Station

Loading…

Nächste Überflüge (nächste 24 Stunden)

TLE

AktuellSource: CelesTrak SupGP

Epoche: Sep 14, 2026, 20:46 UTC

1 60734C 24152Q   26257.86576389 -.00017358  00000+0 -51319-3 0  2572
2 60734  53.1569 107.6931 0001356  78.5899 268.0010 15.34378235    18

Verfolge STARLINK-32179 in Echtzeit mit AllMySat

Download on the App Store